Regional Weather Roundup
Issued by NWS

Home | Current Version | Previous Version | Text Only | Print | Product List | Glossary On
Versions: 1 2 3 4 5 6 7 8 9 10 11 12 13 14 15 16 17 18 19 20 21 22 23 24 25 26 27 28 29 30 31 32 33 34 35 36 37 38 39 40 41 42 43 44 45 46 47 48 49 50
000
ASUS43 KLMK 241102
RWRKY
KENTUCKY REGIONAL WEATHER ROUNDUP
NATIONAL WEATHER SERVICE LOUISVILLE KY
700 AM EDT TUE APR 24 2018

NOTE "FAIR" INDICATES FEW OR NO CLOUDS BELOW 12,000 FEET
WITH NO SIGNIFICANT WEATHER AND/OR OBSTRUCTIONS TO VISIBILITY.

KYZ001>023-026-027-061>063-070>075-241200-
WESTERN AND SOUTH CENTRAL KENTUCKY

CITY           SKY/WX    TMP DP  RH WIND       PRES   REMARKS
PADUCAH        CLOUDY    55  54  96 NW3       29.92R
HENDERSON      LGT RAIN  55  53  93 N5        29.92S
OWENSBORO      CLOUDY    56  53  90 N5        29.92R
HOPKINSVILLE   CLOUDY    55  55 100 NW3       29.91R
BOWLING GREEN  CLOUDY    56  55  97 CALM      29.90R
GLASGOW        NOT AVBL
$$

KYZ024-025-028>034-038-045-046-053-241200-
NORTH CENTRAL KENTUCKY

CITY           SKY/WX    TMP DP  RH WIND       PRES   REMARKS
LOUISVILLE/SDF LGT RAIN  54  52  93 N5        29.91S FOG
LOUISVILLE/LOU CLOUDY    54  53  97 NE5       29.92S
FORT KNOX      CLOUDY    53  53 100 NE6       29.91S
$$

KYZ035>037-039>044-047>052-055>060-089>105-241200-
NORTHEAST KENTUCKY

CITY           SKY/WX    TMP DP  RH WIND       PRES   REMARKS
LEXINGTON      LGT RAIN  52  49  89 NE12      29.92S
COVINGTON      LGT RAIN  52  51  97 E8        29.95S
FRANKFORT      LGT RAIN  53  49  86 NE6       29.91S
$$

KYZ054-064>069-076>088-106>120-241200-
SOUTHEAST KENTUCKY

CITY           SKY/WX    TMP DP  RH WIND       PRES   REMARKS
JACKSON        CLOUDY    56  47  71 NE5       29.91S
LONDON         LGT RAIN  52  51  97 N3        29.90S
SOMERSET       NOT AVBL
MIDDLESBORO    RAIN      53  53 100 W3        29.91R
MONTICELLO     LGT RAIN  54  52  93 N10       29.89S
$$





USA.gov is the U.S. government's official web portal to all federal, state and local government web resources and services.